www.pogodaiklimat.ru

Погода и климат >> Архив погоды >> Канада >> Grand Etang


ПОГОДА в Grand Etang

  • Прогноз погоды в Grand Etang
  • Монитор погоды в Grand Etang
  • Климат города

АРХИВ ПОГОДЫ в Grand Etang

Время (UTC), дата Ветер
(напр.,м/с)
 
Видим.   Явления Облачность Т
(С)
Тd
(С)
f
(%)
Тe
(С)
Тes
(С)
Комфортность P
(гПа)
Po
(гПа)
Тmin
(С)
Tmax
(С)
R
(мм)
R24
(мм)
S
(см)
00 12.01 СЗ 13 1200 м в посл. час метель 10/10 50 м
[]
-25.8 -28.4 79 -43 -43 опасность
обморожения
1001.8 995.4 -28.2 -25.0
03 12.01 С 14 1000 м в посл. час метель н/о -26.7 -29.5 77 -45 -45 опасность
обморожения
1001.9 995.5
06 12.01 СЗ 13 1000 м в посл. час метель 10/10 600 м
[]
-23.0 -25.3 81 -39 -39 опасность
обморожения
1001.3 994.9 -28.2 -23.0 0.0 32
09 12.01 С 11 2000 м дымка 10/10 300 м
[]
-23.0 -25.4 81 -38 -38 опасность
обморожения
1002.2 995.8
12 12.01 СЗ 10 2000 м в посл. час метель ясно -24.7 -27.2 80 -40 -40 опасность
обморожения
1002.0 995.6 -26.7 -23.0
15 12.01 СЗ 12 1600 м в посл. час метель 10/10 300 м
[]
-22.9 -25.2 81 -38 -38 опасность
обморожения
1002.0 995.6
18 12.01 СЗ 12 1600 м в посл. час метель 10/10 600 м
[]
-23.1 -25.5 81 -39 -39 опасность
обморожения
1002.2 995.8 -26.7 -22.7
21 12.01 СЗ 9 4000 м дымка 9/9 1000 м
[]
-25.9 -28.5 79 -41 -41 опасность
обморожения
1003.1 996.7
00 13.01 СЗ 10 2000 м дымка 10/10 600 м
[]
-24.6 -27.1 80 -40 -40 опасность
обморожения
1003.2 996.8 -26.1 -22.7
03 13.01 0 слабый снег н/о 1002.8 996.4
06 13.01 СЗ 8 2000 м слаб. снег 10/0 2000 м
[]
-24.3 -26.8 80 -38 -38 опасность
обморожения
1002.6 996.2 72
09 13.01 СЗ 8 2800 м слаб. снег 10/0 2000 м
[]
-24.1 -38 -38 опасность
обморожения
1003.4 997.0
12 13.01 З 5 4000 м дым ясно -29.0 -32.1 74 -41 -41 опасность
обморожения
1004.0 997.6
15 13.01 СЗ 6 4000 м дым ясно -31.5 -34.9 72 -45 -44 опасность
обморожения
1004.3 997.8
18 13.01 СЗ 7 4000 м дым 9/9 1000 м
[]
-32.5 -36.0 71 -48 -48 опасность
обморожения
1004.9 998.4 -23.6
21 13.01 СЗ 5 4800 м дым ясно -34.2 -38.2 67 -48 -48 опасность
обморожения
1007.3 1000.8
00 14.01 С 5 4800 м дым ясно -33.8 -37.4 70 -47 -47 опасность
обморожения
1009.9 1003.3 -34.4 -29.0
03 14.01 СЗ 6 4800 м дым ясно -34.6 -38.4 68 -49 -49 опасность
обморожения
1012.4 1005.8
06 14.01 СЗ 8 4800 м дым ясно -34.6 -38.4 68 -52 -52 опасность
обморожения
1015.0 1008.4 -35.9 -23.6 71
09 14.01 СЗ 6 2800 м дым 10/10 100 м
[]
-31.8 -35.3 71 -46 -46 опасность
обморожения
1017.6 1011.0
12 14.01 СЗ 7 3200 м дым ясно -32.0 -35.5 71 -47 -47 опасность
обморожения
1020.0 1013.4 -35.9 -23.6
15 14.01 СЗ 7 3200 м дым ясно -31.4 -34.8 72 -46 -45 опасность
обморожения
1021.1 1014.5
18 14.01 СЗ 7 1200 м дым 9/9 200 м
[]
-30.2 -33.4 73 -45 -45 опасность
обморожения
1021.8 1015.2 -35.9 -30.0
21 14.01 СЗ 10 1200 м дым 3/3 200 м
[]
-29.3 -32.4 74 -46 -46 опасность
обморожения
1023.6 1017.0
00 15.01 С 7 1200 м дымка н/о -28.6 -31.6 75 -43 -43 опасность
обморожения
1025.2 1018.6 -34.8 -28.6
03 15.01 СЗ 11 1600 м в посл. час метель ясно -28.9 -32.0 74 -46 -46 опасность
обморожения
1025.6 1019.0
06 15.01 З 3 2400 м дым 9/9 50 м
[]
-29.2 -32.2 75 -39 -39 опасность
обморожения
1025.6 1019.0 -34.8 -28.3 32
09 15.01 З 4 4800 м дым 9/0
[]
-28.0 -30.9 76 -39 -39 опасность
обморожения
1026.3 1019.7
12 15.01 ЮЗ 3 4800 м дымка 9/0
[]
-26.6 -29.4 77 -36 -36 опасность
обморожения
1024.5 1017.9 -29.6 -28.3
15 15.01 ЮЗ 6 4800 м дымка 10/0
[]
-24.8 -27.4 79 -37 -37 опасность
обморожения
1021.2 1014.7
18 15.01 Ю 6 4800 м дым 10/0
[]
-23.4 -25.8 81 -35 -35 опасность
обморожения
1018.0 1011.5 -30.2 -23.4
21 15.01 Ю 7 4800 м дымка 10/10 1500 м
[]
-22.6 -24.9 81 -35 -35 опасность
обморожения
1015.7 1009.2
00 16.01 ЮВ 5 4800 м слаб. снег 10/0 2000 м
[]
-20.8 -22.8 84 -31 -31 опасность
обморожения
1014.2 1007.7 -29.3 -20.8 0.0
03 16.01 ЮВ 6 4800 м дымка 10/0
[]
-19.7 -21.8 83 -30 -30 1012.9 1006.5
06 16.01 ЮВ 5 4800 м дымка 3/0
[]
-21.8 -24.0 82 -32 -32 опасность
обморожения
1012.0 1005.6 -29.3 -19.5 19
09 16.01 В 6 4800 м дымка 10/0
[]
-20.8 -23.0 82 -32 -32 опасность
обморожения
1012.6 1006.2
12 16.01 В 5 4800 м дымка 10/0
[]
-21.3 -23.5 82 -32 -32 опасность
обморожения
1012.1 1005.7 -22.2 -19.5
15 16.01 СВ 5 4800 м дымка 10/0
[]
-22.8 -25.1 81 -34 -33 опасность
обморожения
1012.8 1006.4
18 16.01 СВ 7 4800 м дым 10/0
[]
-23.3 -25.7 81 -36 -35 опасность
обморожения
1013.3 1006.9 -23.4 -20.8
21 16.01 СВ 6 4800 м дымка 10/0
[]
-23.0 -25.4 81 -35 -35 опасность
обморожения
1014.7 1008.3
00 17.01 СВ 5 4800 м дымка 10/0
[]
-23.1 -25.4 81 -34 -34 опасность
обморожения
1015.6 1009.2 -23.3 -21.3
03 17.01 СВ 6 4800 м дымка 10/0
[]
-23.6 -26.0 81 -35 -35 опасность
обморожения
1015.7 1009.2
06 17.01 СВ 5 4800 м дымка 10/0
[]
-22.8 -25.1 81 -34 -34 опасность
обморожения
1015.8 1009.3
09 17.01 С 5 4800 м дымка 10/0 2000 м
[]
-22.0 -24.2 82 -33 -33 опасность
обморожения
1016.2 1009.8
12 17.01 С 3 4800 м дымка 10/10 1500 м
[]
-21.9 -24.1 82 -30 -30 1016.0 1009.6
15 17.01 З 3 4800 м дым ясно -23.3 -25.7 81 -31 -28 опасность
обморожения
1015.5 1009.0
18 17.01 С 6 4800 м дымка ясно -26.6 -29.4 77 -39 -39 опасность
обморожения
1015.3 1008.8 -21.7
21 17.01 С 5 4800 м дым ясно -29.5 -32.6 74 -41 -41 опасность
обморожения
1015.0 1008.5
00 18.01 С 7 3600 м дым ясно -29.4 -32.5 74 -44 -44 опасность
обморожения
1014.7 1008.2 -29.9 -21.7
03 18.01 С 7 4800 м дым ясно -29.5 -32.5 75 -44 -44 опасность
обморожения
1013.6 1007.1
06 18.01 С 6 4800 м дым ясно -29.7 -32.8 74 -43 -43 опасность
обморожения
1013.8 1007.3 -30.6 -21.7 5
09 18.01 СВ 6 4800 м дым ясно -30.7 -33.9 73 -44 -44 опасность
обморожения
1014.8 1008.2
12 18.01 СВ 3 4800 м дым ясно -31.7 -35.0 72 -42 -42 опасность
обморожения
1014.8 1008.2 -31.7 -21.7
15 18.01 СВ 5 4800 м дым ясно -31.9 -35.4 71 -44 -43 опасность
обморожения
1014.4 1007.8
18 18.01 СВ 5 4800 м дым ясно -33.1 -36.7 70 -47 -45 опасность
обморожения
1014.7 1008.1 -33.3 -29.7
21 18.01 СВ 5 4800 м дым ясно -33.9 -37.6 69 -48 -48 опасность
обморожения
1015.3 1008.7

 

Местоположение метеостанции Grand Etang (Канада): широта 46.55 долгота -61.05 высота над уровнем моря 13 м.

В архиве по умолчанию представлена погода в Grand Etang за последнюю неделю. Архивные данные за месяц целиком и за предыдущие месяцы, начиная с января 2011 года, Вы можете получить, выбрав интересующий диапазон дат из раскрывающегося списка и нажав кнопку "Ввод!".

Внимание! Время в таблицах - всемирное. Для получения местного времени необходимо прибавить поправку, которая в Grand Etang равна -4 ч.

Смотрите также архив погоды в соседних городах и на ближайших метеорологических станциях:

Погода в Cheticamp (Канада) (13 км)
Погода в North Mountain (Канада) (42 км)
Погода в Ingonish Beach (Канада) (51 км)
Погода в East Point (Канада) (71 км)
Погода в Sydney (Канада) (88 км)
Погода в Sydney Rcs (Канада) (88 км)
Погода в St Paul Island (Канада) (103 км)
Погода в Port Hawkesbury (Канада) (103 км)
Погода в Lles de la Madelein (Канада) (111 км)
Погода в Lles de la Madelein (Канада) (111 км)

Пояснения к столбцам:

Ветер - указаны скорость ветра в м/с - средняя за 10 мин, порывы в срок и между сроками (в фигурных скобках) и направление, откуда дует ветер: С - северный, СВ - северо-восточный, В - восточный, ЮВ - юго-восточный, Ю - южный, ЮЗ - юго-западный, З - западный, СЗ - северо-западный.
Видимость - горизонтальная дальность видимости в метрах или километрах. При видимости от 1 до 10 км при отсутствии осадков обычно наблюдается дымка, при ухудшении видимости до 1 км и менее - туман. В сухую погоду видимость может ухудшаться дымом, пылью или мглою.
Явления - указаны атмосферные явления, наблюдавшиеся в срок или в последний час перед сроком; фигурными скобками обозначены явления, наблюдавшиеся между сроками (за 1-3 часа до срока); квадратными скобками обозначены град или гололедные отложения с указанием их диаметра в мм.
Облачность - указаны через наклонную черту общая и нижняя облачность в баллах и высота нижней границы облаков в метрах; квадратными скобками обозначены формы облаков: Ci - перистые, Cs - перисто-слоистые, Cc - перисто-кучевые, Ac - высококучевые, As - высокослоистые, Sc - слоисто-кучевые, Ns - слоисто-дождевые, Cu - кучевые, Cb - кучево-дождевые. Подробнее классификацию облаков см. в Атласе облаков (PDF).
T - Температура воздуха - температура, измеренная на высоте 2 м над землей.
Td - Температура точки росы - температура, при понижении до которой содержащийся в воздухе водяной пар достигнет насыщения.
f - Относительная влажность воздуха - влажноcть воздуха, измеренная на высоте 2 м над землей.
Te - Эффективная температура - температура, которую ощущает одетый по сезону человек в тени. Характеристика душности погоды. При расчете учитывается влияние влажности воздуха и скорости ветра на теплоощущения человека.
Tes - Эффективная температура на солнце - температура, которую ощущает человек, с поправкой на солнечный нагрев. Характеристика знойности погоды. Зависит от высоты солнца над горизонтом, облачности и скорости ветра. Ночью, в пасмурную погоду, а также при ветре 12 м/с и более поправка равна нулю.
P - Атмосферное давление - приведенное к уровню моря атмосферное давление.
Po - Атмосферное давление - измеренное на уровне метеостанции атмосферное давление.
Tmin - Минимальная температура - минимум температуры воздуха на высоте 2 м над землей.
Tmax - Максимальная температура - максимум температуры воздуха на высоте 2 м над землей.
R - Количество осадков - Количество выпавших осадков за период времени, мм. При наведении курсора мыши на число - период времени, за который выпало указанное количество осадков.
R24 - Количество осадков - Количество выпавших осадков за 24 часа, мм.
S - Снежный покров - Высота снежного покрова, см. При наведении курсора мыши на число - состояние снежного покрова и степень покрытия местности в баллах.